Location: Doazon
(43.4500°N, 0.5500°W)
Time: 21:46:23
(UTC+00:00)

Cosmos 1980 Rocket - Pass Details

Date: 05 December 2025
Orbit: 830 x 847 km, 71.0° (Epoch: 21 January)

Event Time Altitude Azimuth Distance (km) Brightness Sun altitude
Rises 19:44:16 0° 211° (SSW) 3,389 5.7 -35.2°
Reaches altitude 10° 19:46:44 10° 214° (SW) 2,456 4.9 -35.6°
Enters shadow 19:48:52 24° 220° (SW) 1,684 4.0 -36.0°
